Zurück zum Katalog

COSMOS 2251 DEB

AktivLEO
NORAD 36453·DEBRIS·🇷🇺 Russia

Gestartet Jun 16, 1993 von Plesetsk Cosmodrome

Loading…

Nächste Überflüge (nächste 24 Stunden)

TLE

AlterndSource: Space-Track

Epoche: Sep 8, 2026, 18:08 UTC

1 36453U 93036BBC 26251.75580855  .00002678  00000-0  61726-3 0  9999
2 36453  73.9261 358.8177 0068021 203.7063 308.3144 14.54429330883915

Verfolge COSMOS 2251 DEB in Echtzeit mit AllMySat

Download on the App Store